Dauntless Aviation
Airports Europe France
LFIY

Saint Jean d'Angely

FRANCE

Airport Info
Suggest Updated Information for this Airport

Location

Latitude / Longitude: 45°57'59"N / 0°31'31"W
  45°57.984'N / 0°31.518'W
  45.9664 / -0.5253

Runway Information

Runway 10 /28

Dimensions: 2789 x 164 ft.
Surface: U
 
Runway 10
Runway 28
Latitude: 45.966636 45.965728
Longitude: -0.528086 -0.518369
Elevation: 243 ft. 243 ft.
Runway true heading: 95.7 275.7
 

Instrument Procedures

IAPs (Instrument Approach Procedures)

  Visual Approach Chart
Satellite photo at:
Airport distance calculator
From:
Weather Reports

METAR

LFBG
20.0nm SE
LFBG 241500Z AUTO 03012KT CAVOK 07/M02 Q1027
LFBH
31.0nm W
LFBH 241500Z AUTO 04007KT 360V070 CAVOK 08/M01 Q1028 NOSIG
LFBU
34.5nm E
LFBU 241500Z AUTO 02010KT 9999 FEW039 06/M02 Q1026 NOSIG

TAF

LFBH
31.0nm W
TAF LFBH 241100Z 2412/2512 03007KT CAVOK TEMPO 2502/2509 3000 BR BKN005 TEMPO 2509/2512 BKN013
LFBU
34.5nm E
TAF LFBU 241100Z 2412/2512 02010KT CAVOK BECMG 2500/2503 4000 BR BKN004 BECMG 2508/2510 9999 NSW SCT009 BECMG 2510/2512 CAVOK
Safelog

 

Dauntless Aviation

© 2007-2017 Dauntless Aviation, all rights reserved
Information provided via PilotNav comes from a variety of official and unofficial data sources. As errors are possible, do not use PilotNav for primary flight planning purposes. Verify any information that you receive via PilotNav with current and canonical charts and other official documents. The material in this database is subject to database copyrights held by Dauntless Aviation and may not be copied without the express permission of Dauntless Aviation - licenses for use of part of all of this data are available for purchase; enquire via the Dauntless Aviation helpdesk. A number of mechanisms and markers exist in the database to protect against and identify infringement / copyright. Automated queries against this website are stictly prohibited, and all activity is logged and analyzed.